EWG76U EDDL-EDDH

Flight info

Callsign EWG76U
Flight time N/A
Altitude 31000
Route MEVEL4T/23L MEVEL Y850 BASUM/N0443F300 Y850 PIXUR/N0443F290 Y850 MUBZI M105 RIBSO RIBSO3P
Aircraft A320/M-SDE3FGHIRWY/LB1

Departure

Time N/A
Airport Düsseldorf Airport (EDDL)

Arrival

Time 2026-05-03 20:40
Airport Hamburg Helmut Schmidt Airport (EDDH)
Time Latitude Longitude Altitude Speed Heading
2026-05-03 20:15 53.59105 9.19138 17398 ft 316 kts 111°
2026-05-03 20:15 53.58342 9.22497 17385 ft 297 kts 125°
2026-05-03 20:15 53.57229 9.25295 17382 ft 280 kts 139°
2026-05-03 20:15 53.55847 9.27533 17379 ft 272 kts 150°
2026-05-03 20:16 53.54264 9.29200 17378 ft 264 kts 162°
2026-05-03 20:16 53.52561 9.30269 17370 ft 257 kts 173°
2026-05-03 20:16 53.50810 9.30749 17372 ft 251 kts 183°
2026-05-03 20:16 53.49076 9.30669 17364 ft 248 kts 193°
2026-05-03 20:17 53.47406 9.30063 17367 ft 245 kts 201°
2026-05-03 20:17 53.45822 9.29115 17369 ft 244 kts 205°
2026-05-03 20:17 53.44240 9.28007 17363 ft 244 kts 207°
2026-05-03 20:17 53.42686 9.26870 17368 ft 244 kts 207°
2026-05-03 20:18 53.41141 9.25719 17376 ft 243 kts 210°
2026-05-03 20:18 53.39749 9.24227 17300 ft 238 kts 221°
2026-05-03 20:18 53.38537 9.22282 17336 ft 240 kts 229°
2026-05-03 20:18 53.37552 9.20077 17355 ft 240 kts 237°
2026-05-03 20:19 53.36788 9.17585 17357 ft 242 kts 246°
2026-05-03 20:19 53.36302 9.14887 17359 ft 243 kts 255°
2026-05-03 20:19 53.36114 9.12055 17363 ft 247 kts 265°
2026-05-03 20:19 53.36242 9.09172 17363 ft 251 kts 275°
2026-05-03 20:20 53.36701 9.06330 17358 ft 256 kts 285°
2026-05-03 20:20 53.37499 9.03633 17363 ft 261 kts 293°
2026-05-03 20:20 53.38630 9.01178 17362 ft 269 kts 307°
2026-05-03 20:20 53.40063 8.99110 17366 ft 276 kts 319°
2026-05-03 20:21 53.41771 8.97532 17358 ft 283 kts 330°
2026-05-03 20:21 53.43696 8.96570 17348 ft 295 kts 344°
2026-05-03 20:21 53.45719 8.96318 17350 ft 297 kts 358°
2026-05-03 20:21 53.47778 8.96860 17358 ft 302 kts 12°
2026-05-03 20:22 53.49786 8.97958 17358 ft 305 kts 17°
2026-05-03 20:22 53.51753 8.99295 17349 ft 306 kts 20°
2026-05-03 20:22 53.53718 9.00790 17240 ft 326 kts 25°
2026-05-03 20:22 53.55801 9.02853 16922 ft 366 kts 31°
2026-05-03 20:23 53.57938 9.05345 16468 ft 376 kts 35°
2026-05-03 20:23 53.60002 9.07960 16274 ft 365 kts 36°
2026-05-03 20:23 53.61982 9.10525 15882 ft 356 kts 36°
2026-05-03 20:23 53.63939 9.13036 15261 ft 352 kts 36°
2026-05-03 20:24 53.65892 9.15475 14722 ft 348 kts 34°
2026-05-03 20:24 53.67836 9.17845 14206 ft 342 kts 34°
2026-05-03 20:24 53.69752 9.20147 13711 ft 332 kts 33°
2026-05-03 20:24 53.71618 9.22383 13236 ft 327 kts 34°
2026-05-03 20:25 53.73422 9.24604 12786 ft 321 kts 39°
2026-05-03 20:25 53.74934 9.27612 12368 ft 353 kts 62°
2026-05-03 20:25 53.75957 9.31473 11970 ft 370 kts 69°
2026-05-03 20:25 53.76921 9.35577 11552 ft 368 kts 69°
2026-05-03 20:26 53.77839 9.39556 11176 ft 370 kts 69°
2026-05-03 20:26 53.78749 9.43612 10766 ft 367 kts 71°
2026-05-03 20:26 53.79648 9.47677 10375 ft 369 kts 71°
2026-05-03 20:26 53.80541 9.51731 10106 ft 367 kts 71°
2026-05-03 20:27 53.81437 9.55761 9862 ft 365 kts 71°
2026-05-03 20:27 53.82330 9.59739 9827 ft 347 kts 71°
2026-05-03 20:27 53.83168 9.63452 9824 ft 329 kts 71°
2026-05-03 20:27 53.83953 9.66944 9827 ft 314 kts 71°
2026-05-03 20:28 53.84708 9.70332 9831 ft 303 kts 71°
2026-05-03 20:28 53.85442 9.73647 9843 ft 291 kts 72°
2026-05-03 20:28 53.86127 9.76756 9836 ft 283 kts 73°
2026-05-03 20:28 53.86555 9.79968 9836 ft 276 kts 89°
2026-05-03 20:29 53.86531 9.83186 9843 ft 271 kts 102°
2026-05-03 20:29 53.86298 9.86351 9836 ft 265 kts 103°
2026-05-03 20:29 53.86055 9.89505 9853 ft 272 kts 102°
2026-05-03 20:29 53.85820 9.92713 9857 ft 273 kts 102°
2026-05-03 20:30 53.85598 9.95902 9860 ft 273 kts 101°
2026-05-03 20:30 53.85381 9.99090 9859 ft 273 kts 101°
2026-05-03 20:30 53.85159 10.02247 9740 ft 273 kts 102°
2026-05-03 20:30 53.84931 10.05450 9384 ft 277 kts 102°
2026-05-03 20:31 53.84698 10.08687 9162 ft 275 kts 102°
2026-05-03 20:31 53.84470 10.11878 8819 ft 272 kts 102°
2026-05-03 20:31 53.84244 10.15043 8300 ft 271 kts 101°
2026-05-03 20:31 53.84323 10.18225 7802 ft 272 kts 81°
2026-05-03 20:32 53.85009 10.21219 7346 ft 274 kts 60°
2026-05-03 20:32 53.86162 10.23773 6872 ft 273 kts 53°
2026-05-03 20:32 53.86932 10.26604 6418 ft 261 kts 90°
2026-05-03 20:32 53.86625 10.29496 5989 ft 242 kts 125°
2026-05-03 20:33 53.85614 10.31677 5606 ft 233 kts 147°
2026-05-03 20:33 53.84207 10.33127 5398 ft 245 kts 166°
2026-05-03 20:33 53.82520 10.33697 5269 ft 250 kts 184°
2026-05-03 20:33 53.80834 10.33253 5074 ft 241 kts 202°
2026-05-03 20:34 53.79414 10.31950 4822 ft 224 kts 220°
2026-05-03 20:34 53.78401 10.30162 4559 ft 205 kts 230°
2026-05-03 20:34 53.77498 10.28304 4286 ft 202 kts 230°
2026-05-03 20:34 53.76620 10.26507 4011 ft 197 kts 231°
2026-05-03 20:35 53.75756 10.24733 3758 ft 192 kts 231°
2026-05-03 20:35 53.74927 10.23043 3502 ft 181 kts 231°
2026-05-03 20:35 53.74144 10.21442 3290 ft 171 kts 231°
2026-05-03 20:35 53.73406 10.19937 3072 ft 162 kts 232°
2026-05-03 20:36 53.72695 10.18477 2840 ft 156 kts 231°
2026-05-03 20:36 53.72018 10.17095 2632 ft 150 kts 232°
2026-05-03 20:36 53.71366 10.15766 2438 ft 143 kts 232°
2026-05-03 20:36 53.70716 10.14439 2248 ft 150 kts 232°
2026-05-03 20:37 53.70059 10.13102 2041 ft 150 kts 231°
2026-05-03 20:37 53.69427 10.11814 1861 ft 137 kts 231°
2026-05-03 20:37 53.68808 10.10550 1685 ft 141 kts 233°
2026-05-03 20:37 53.68206 10.09324 1507 ft 133 kts 230°
2026-05-03 20:38 53.67620 10.08132 1305 ft 130 kts 232°
2026-05-03 20:38 53.67044 10.06960 1129 ft 133 kts 232°
2026-05-03 20:38 53.66461 10.05776 950 ft 128 kts 232°
2026-05-03 20:38 53.65886 10.04610 782 ft 128 kts 234°
2026-05-03 20:39 53.65307 10.03432 621 ft 131 kts 233°
2026-05-03 20:39 53.64738 10.02266 425 ft 127 kts 229°
2026-05-03 20:39 53.64172 10.01120 277 ft 126 kts 231°
2026-05-03 20:39 53.63614 9.99986 93 ft 126 kts 231°
2026-05-03 20:40 53.63092 9.98941 49 ft 105 kts 230°
2026-05-03 20:40 53.62774 9.98287 43 ft 34 kts 230°
2026-05-03 20:40 53.62616 9.97971 41 ft 35 kts 230°
2026-05-03 20:40 53.62496 9.97786 41 ft 17 kts 183°
2026-05-03 20:41 53.62430 9.97875 45 ft 9 kts 99°
2026-05-03 20:41 53.62432 9.97940 46 ft 4 kts 82°
2026-05-03 20:41 53.62443 9.98054 47 ft 15 kts 79°
2026-05-03 20:41 53.62461 9.98203 47 ft 15 kts 78°
2026-05-03 20:42 53.62487 9.98428 47 ft 18 kts 79°
2026-05-03 20:42 53.62507 9.98612 47 ft 14 kts 78°
2026-05-03 20:42 53.62523 9.98745 46 ft 11 kts 79°
2026-05-03 20:42 53.62539 9.98886 47 ft 11 kts 79°
2026-05-03 20:43 53.62551 9.98993 45 ft 10 kts 78°
2026-05-03 20:43 53.62573 9.99187 47 ft 21 kts 80°
2026-05-03 20:43 53.62597 9.99391 47 ft 13 kts 79°
2026-05-03 20:43 53.62611 9.99518 46 ft 9 kts 79°
2026-05-03 20:44 53.62624 9.99634 45 ft 11 kts 78°
2026-05-03 20:44 53.62638 9.99755 44 ft 15 kts 76°
2026-05-03 20:44 53.62720 9.99884 46 ft 15 kts 28°
2026-05-03 20:44 53.62795 9.99953 47 ft 9 kts 29°
2026-05-03 20:45 53.62845 10.00005 47 ft 13 kts 40°
2026-05-03 20:45 53.62921 10.00102 48 ft 12 kts 32°
2026-05-03 20:45 53.62976 10.00163 46 ft 7 kts 33°
2026-05-03 20:45 53.63045 10.00239 46 ft 18 kts 31°
2026-05-03 20:46 53.63149 10.00256 48 ft 13 kts 355°
2026-05-03 20:46 53.63203 10.00294 46 ft 8 kts 70°
2026-05-03 20:46 53.63206 10.00361 48 ft 0 kts 88°
2026-05-03 20:46 53.63206 10.00360 48 ft 0 kts 88°